Year,Month,Day,Hour,Minute,Value (Times are PST for temperature in C)
2017,04,24,00,00,7.70
2017,04,24,00,01,7.70
2017,04,24,00,02,7.70
2017,04,24,00,03,7.70
2017,04,24,00,04,7.70
2017,04,24,00,05,7.70
2017,04,24,00,06,7.70
2017,04,24,00,07,7.70
2017,04,24,00,08,7.70
2017,04,24,00,09,7.70
2017,04,24,00,10,7.70
2017,04,24,00,11,7.70
2017,04,24,00,12,7.70
2017,04,24,00,13,7.70
2017,04,24,00,14,7.70
2017,04,24,00,15,7.70
2017,04,24,00,16,7.70
2017,04,24,00,17,7.60
2017,04,24,00,18,7.60
2017,04,24,00,19,7.60
2017,04,24,00,20,7.60
2017,04,24,00,21,7.60
2017,04,24,00,22,7.60
2017,04,24,00,23,7.60
2017,04,24,00,24,7.60
2017,04,24,00,25,7.60
2017,04,24,00,26,7.60
2017,04,24,00,27,7.60
2017,04,24,00,28,7.60
2017,04,24,00,29,7.60
2017,04,24,00,30,7.50
2017,04,24,00,31,7.50
2017,04,24,00,32,7.50
2017,04,24,00,33,7.50
2017,04,24,00,34,7.50
2017,04,24,00,35,7.50
2017,04,24,00,36,7.50
2017,04,24,00,37,7.50
2017,04,24,00,38,7.50
2017,04,24,00,39,7.50
2017,04,24,00,40,7.50
2017,04,24,00,41,7.50
2017,04,24,00,42,7.50
2017,04,24,00,43,7.50
2017,04,24,00,44,7.50
2017,04,24,00,45,7.40
2017,04,24,00,46,7.40
2017,04,24,00,47,7.40
2017,04,24,00,48,7.40
2017,04,24,00,49,7.40
2017,04,24,00,50,7.40
2017,04,24,00,51,7.40
2017,04,24,00,52,7.40
2017,04,24,00,53,7.50
2017,04,24,00,54,7.40
2017,04,24,00,55,7.50
2017,04,24,00,56,7.50
2017,04,24,00,57,7.50
2017,04,24,00,58,7.50
2017,04,24,00,59,7.50
2017,04,24,01,00,7.50
2017,04,24,01,01,7.50
2017,04,24,01,02,7.50
2017,04,24,01,03,7.50
2017,04,24,01,04,7.50
2017,04,24,01,05,7.50
2017,04,24,01,06,7.50
2017,04,24,01,07,7.50
2017,04,24,01,08,7.50
2017,04,24,01,09,7.50
2017,04,24,01,10,7.40
2017,04,24,01,11,7.40
2017,04,24,01,12,7.40
2017,04,24,01,13,7.40
2017,04,24,01,14,7.40
2017,04,24,01,15,7.40
2017,04,24,01,16,7.40
2017,04,24,01,17,7.40
2017,04,24,01,18,7.40
2017,04,24,01,19,7.30
2017,04,24,01,20,7.30
2017,04,24,01,21,7.30
2017,04,24,01,22,7.30
2017,04,24,01,23,7.30
2017,04,24,01,24,7.30
2017,04,24,01,25,7.30
2017,04,24,01,26,7.30
2017,04,24,01,27,7.30
2017,04,24,01,28,7.30
2017,04,24,01,29,7.30
2017,04,24,01,30,7.30
2017,04,24,01,31,7.30
2017,04,24,01,32,7.30
2017,04,24,01,33,7.30
2017,04,24,01,34,7.20
2017,04,24,01,35,7.20
2017,04,24,01,36,7.20
2017,04,24,01,37,7.20
2017,04,24,01,38,7.20
2017,04,24,01,39,7.20
2017,04,24,01,40,7.20
2017,04,24,01,41,7.20
2017,04,24,01,42,7.20
2017,04,24,01,43,7.20
2017,04,24,01,44,7.20
2017,04,24,01,45,7.20
2017,04,24,01,46,7.10
2017,04,24,01,47,7.10
2017,04,24,01,48,7.10
2017,04,24,01,49,7.10
2017,04,24,01,50,7.10
2017,04,24,01,51,7.10
2017,04,24,01,52,7.10
2017,04,24,01,53,7.10
2017,04,24,01,54,7.10
2017,04,24,01,55,7.10
2017,04,24,01,56,7.10
2017,04,24,01,57,7.10
2017,04,24,01,58,7.10
2017,04,24,01,59,7.10
2017,04,24,02,00,7.10
2017,04,24,02,01,7.10
2017,04,24,02,02,7.10
2017,04,24,02,03,7.00
2017,04,24,02,04,7.00
2017,04,24,02,05,7.00
2017,04,24,02,06,7.00
2017,04,24,02,07,7.00
2017,04,24,02,08,7.00
2017,04,24,02,09,7.00
2017,04,24,02,10,7.00
2017,04,24,02,11,6.90
2017,04,24,02,12,6.90
2017,04,24,02,13,6.90
2017,04,24,02,14,6.90
2017,04,24,02,15,6.90
2017,04,24,02,16,6.80
2017,04,24,02,17,6.80
2017,04,24,02,18,6.80
2017,04,24,02,19,6.80
2017,04,24,02,20,6.80
2017,04,24,02,21,6.80
2017,04,24,02,22,6.80
2017,04,24,02,23,6.80
2017,04,24,02,24,6.70
2017,04,24,02,25,6.70
2017,04,24,02,26,6.70
2017,04,24,02,27,6.70
2017,04,24,02,28,6.70
2017,04,24,02,29,6.70
2017,04,24,02,30,6.60
2017,04,24,02,31,6.60
2017,04,24,02,32,6.60
2017,04,24,02,33,6.60
2017,04,24,02,34,6.50
2017,04,24,02,35,6.50
2017,04,24,02,36,6.50
2017,04,24,02,37,6.40
2017,04,24,02,38,6.40
2017,04,24,02,39,6.40
2017,04,24,02,40,6.40
2017,04,24,02,41,6.40
2017,04,24,02,42,6.30
2017,04,24,02,43,6.30
2017,04,24,02,44,6.30
2017,04,24,02,45,6.30
2017,04,24,02,46,6.30
2017,04,24,02,47,6.30
2017,04,24,02,48,6.30
2017,04,24,02,49,6.30
2017,04,24,02,50,6.30
2017,04,24,02,51,6.20
2017,04,24,02,52,6.20
2017,04,24,02,53,6.20
2017,04,24,02,54,6.20
2017,04,24,02,55,6.20
2017,04,24,02,56,6.20
2017,04,24,02,57,6.30
2017,04,24,02,58,6.30
2017,04,24,02,59,6.30
2017,04,24,03,00,6.30
2017,04,24,03,01,6.30
2017,04,24,03,02,6.30
2017,04,24,03,06,6.30
2017,04,24,03,07,6.30
2017,04,24,03,08,6.30
2017,04,24,03,09,6.30
2017,04,24,03,10,6.30
2017,04,24,03,11,6.20
2017,04,24,03,12,6.20
2017,04,24,03,13,6.20
2017,04,24,03,14,6.20
2017,04,24,03,15,6.20
2017,04,24,03,16,6.20
2017,04,24,03,17,6.20
2017,04,24,03,18,6.20
2017,04,24,03,19,6.20
2017,04,24,03,20,6.20
2017,04,24,03,21,6.20
2017,04,24,03,22,6.10
2017,04,24,03,23,6.10
2017,04,24,03,24,6.10
2017,04,24,03,25,6.10
2017,04,24,03,26,6.10
2017,04,24,03,27,6.10
2017,04,24,03,28,6.10
2017,04,24,03,29,6.10
2017,04,24,03,30,6.10
2017,04,24,03,31,6.10
2017,04,24,03,32,6.10
2017,04,24,03,33,6.10
2017,04,24,03,34,6.10
2017,04,24,03,35,6.10
2017,04,24,03,36,6.10
2017,04,24,03,37,6.10
2017,04,24,03,38,6.10
2017,04,24,03,39,6.10
2017,04,24,03,40,6.10
2017,04,24,03,41,6.10
2017,04,24,03,42,6.10
2017,04,24,03,43,6.10
2017,04,24,03,44,6.10
2017,04,24,03,45,6.10
2017,04,24,03,46,6.10
2017,04,24,03,47,6.10
2017,04,24,03,48,6.00
2017,04,24,03,49,6.00
2017,04,24,03,50,6.00
2017,04,24,03,51,6.00
2017,04,24,03,52,6.00
2017,04,24,03,53,6.00
2017,04,24,03,54,6.00
2017,04,24,03,55,6.00
2017,04,24,03,56,6.00
2017,04,24,03,57,6.00
2017,04,24,03,58,6.00
2017,04,24,03,59,6.00
2017,04,24,04,00,6.00
2017,04,24,04,01,6.00
2017,04,24,04,02,6.00
2017,04,24,04,03,6.00
2017,04,24,04,04,6.00
2017,04,24,04,05,6.00
2017,04,24,04,06,5.90
2017,04,24,04,07,6.00
2017,04,24,04,08,5.90
2017,04,24,04,09,5.90
2017,04,24,04,10,5.90
2017,04,24,04,11,5.90
2017,04,24,04,12,5.90
2017,04,24,04,13,5.90
2017,04,24,04,14,5.90
2017,04,24,04,15,5.90
2017,04,24,04,16,5.90
2017,04,24,04,17,5.90
2017,04,24,04,18,5.90
2017,04,24,04,19,5.90
2017,04,24,04,20,5.90
2017,04,24,04,21,5.90
2017,04,24,04,22,5.90
2017,04,24,04,23,5.90
2017,04,24,04,24,5.90
2017,04,24,04,25,5.80
2017,04,24,04,26,5.80
2017,04,24,04,27,5.80
2017,04,24,04,28,5.80
2017,04,24,04,29,5.80
2017,04,24,04,30,5.90
2017,04,24,04,31,5.90
2017,04,24,04,32,5.90
2017,04,24,04,33,5.80
2017,04,24,04,34,5.80
2017,04,24,04,35,5.80
2017,04,24,04,36,5.80
2017,04,24,04,37,5.80
2017,04,24,04,38,5.80
2017,04,24,04,39,5.80
2017,04,24,04,40,5.80
2017,04,24,04,41,5.80
2017,04,24,04,42,5.80
2017,04,24,04,43,5.80
2017,04,24,04,44,5.80
2017,04,24,04,45,5.80
2017,04,24,04,46,5.80
2017,04,24,04,47,5.80
2017,04,24,04,48,5.80
2017,04,24,04,49,5.80
2017,04,24,04,50,5.90
2017,04,24,04,51,5.90
2017,04,24,04,52,5.90
2017,04,24,04,53,5.90
2017,04,24,04,54,5.90
2017,04,24,04,55,5.90
2017,04,24,04,56,6.00
2017,04,24,04,57,6.00
2017,04,24,04,58,6.00
2017,04,24,04,59,6.00
2017,04,24,05,00,6.10
2017,04,24,05,01,6.10
2017,04,24,05,02,6.10
2017,04,24,05,03,6.10
2017,04,24,05,04,6.10
2017,04,24,05,05,6.10
2017,04,24,05,06,6.10
2017,04,24,05,07,6.10
2017,04,24,05,08,6.10
2017,04,24,05,09,6.10
2017,04,24,05,10,6.10
2017,04,24,05,11,6.10
2017,04,24,05,12,6.10
2017,04,24,05,13,6.10
2017,04,24,05,14,6.10
2017,04,24,05,15,6.10
2017,04,24,05,16,6.10
2017,04,24,05,17,6.10
2017,04,24,05,18,6.10
2017,04,24,05,19,6.10
2017,04,24,05,20,6.10
2017,04,24,05,21,6.10
2017,04,24,05,22,6.10
2017,04,24,05,23,6.10
2017,04,24,05,24,6.10
2017,04,24,05,25,6.10
2017,04,24,05,26,6.10
2017,04,24,05,27,6.10
2017,04,24,05,28,6.10
2017,04,24,05,29,6.10
2017,04,24,05,30,6.10
2017,04,24,05,31,6.10
2017,04,24,05,32,6.10
2017,04,24,05,33,6.10
2017,04,24,05,34,6.10
2017,04,24,05,35,6.10
2017,04,24,05,36,6.00
2017,04,24,05,37,6.00
2017,04,24,05,38,6.00
2017,04,24,05,39,5.90
2017,04,24,05,40,5.90
2017,04,24,05,41,5.90
2017,04,24,05,42,5.90
2017,04,24,05,43,5.80
2017,04,24,05,44,5.80
2017,04,24,05,45,5.80
2017,04,24,05,46,5.80
2017,04,24,05,47,5.80
2017,04,24,05,48,5.80
2017,04,24,05,49,5.70
2017,04,24,05,50,5.70
2017,04,24,05,51,5.70
2017,04,24,05,52,5.70
2017,04,24,05,53,5.70
2017,04,24,05,54,5.70
2017,04,24,05,55,5.60
2017,04,24,05,56,5.60
2017,04,24,05,57,5.60
2017,04,24,05,58,5.60
2017,04,24,05,59,5.60
2017,04,24,06,00,5.60
2017,04,24,06,01,5.50
2017,04,24,06,02,5.60
2017,04,24,06,03,5.60
2017,04,24,06,04,5.60
2017,04,24,06,05,5.60
2017,04,24,06,06,5.60
2017,04,24,06,07,5.60
2017,04,24,06,08,5.60
2017,04,24,06,09,5.60
2017,04,24,06,10,5.60
2017,04,24,06,11,5.60
2017,04,24,06,12,5.60
2017,04,24,06,13,5.60
2017,04,24,06,14,5.60
2017,04,24,06,15,5.60
2017,04,24,06,16,5.60
2017,04,24,06,17,5.60
2017,04,24,06,18,5.60
2017,04,24,06,19,5.60
2017,04,24,06,20,5.60
2017,04,24,06,21,5.60
2017,04,24,06,22,5.60
2017,04,24,06,23,5.60
2017,04,24,06,24,5.60
2017,04,24,06,25,5.60
2017,04,24,06,26,5.70
2017,04,24,06,27,5.70
2017,04,24,06,28,5.70
2017,04,24,06,29,5.70
2017,04,24,06,30,5.70
2017,04,24,06,31,5.70
2017,04,24,06,32,5.70
2017,04,24,06,33,5.70
2017,04,24,06,34,5.80
2017,04,24,06,35,5.80
2017,04,24,06,36,5.80
2017,04,24,06,37,5.80
2017,04,24,06,38,5.80
2017,04,24,06,39,5.80
2017,04,24,06,40,5.80
2017,04,24,06,41,5.90
2017,04,24,06,42,5.90
2017,04,24,06,43,5.90
2017,04,24,06,44,5.90
2017,04,24,06,45,5.90
2017,04,24,06,46,5.90
2017,04,24,06,47,6.00
2017,04,24,06,48,6.00
2017,04,24,06,49,6.00
2017,04,24,06,50,6.10
2017,04,24,06,51,6.10
2017,04,24,06,52,6.10
2017,04,24,06,53,6.10
2017,04,24,06,54,6.10
2017,04,24,06,55,6.10
2017,04,24,06,56,6.10
2017,04,24,06,57,6.10
2017,04,24,06,58,6.20
2017,04,24,06,59,6.20
2017,04,24,07,00,6.20
2017,04,24,07,01,6.20
2017,04,24,07,02,6.20
2017,04,24,07,03,6.30
2017,04,24,07,04,6.30
2017,04,24,07,05,6.30
2017,04,24,07,06,6.30
2017,04,24,07,07,6.30
2017,04,24,07,08,6.30
2017,04,24,07,09,6.40
2017,04,24,07,10,6.40
2017,04,24,07,11,6.40
2017,04,24,07,12,6.40
2017,04,24,07,13,6.40
2017,04,24,07,14,6.50
2017,04,24,07,15,6.50
2017,04,24,07,16,6.50
2017,04,24,07,17,6.60
2017,04,24,07,18,6.60
2017,04,24,07,19,6.60
2017,04,24,07,20,6.60
2017,04,24,07,21,6.70
2017,04,24,07,22,6.70
2017,04,24,07,23,6.70
2017,04,24,07,24,6.80
2017,04,24,07,25,6.80
2017,04,24,07,26,6.80
2017,04,24,07,27,6.80
2017,04,24,07,28,6.90
2017,04,24,07,29,6.90
2017,04,24,07,30,6.90
2017,04,24,07,31,7.00
2017,04,24,07,32,7.00
2017,04,24,07,33,7.10
2017,04,24,07,34,7.10
2017,04,24,07,35,7.10
2017,04,24,07,36,7.20
2017,04,24,07,37,7.20
2017,04,24,07,38,7.20
2017,04,24,07,39,7.20
2017,04,24,07,40,7.20
2017,04,24,07,41,7.30
2017,04,24,07,42,7.30
2017,04,24,07,43,7.30
2017,04,24,07,44,7.30
2017,04,24,07,45,7.30
2017,04,24,07,46,7.30
2017,04,24,07,47,7.30
2017,04,24,07,48,7.30
2017,04,24,07,49,7.30
2017,04,24,07,50,7.40
2017,04,24,07,51,7.40
2017,04,24,07,52,7.40
2017,04,24,07,53,7.40
2017,04,24,07,54,7.40
2017,04,24,07,55,7.40
2017,04,24,07,56,7.50
2017,04,24,07,57,7.50
2017,04,24,07,58,7.50
2017,04,24,07,59,7.50
2017,04,24,08,00,7.60
2017,04,24,08,01,7.60
2017,04,24,08,02,7.60
2017,04,24,08,03,7.70
2017,04,24,08,04,7.70
2017,04,24,08,05,7.70
2017,04,24,08,06,7.80
2017,04,24,08,07,7.80
2017,04,24,08,08,7.80
2017,04,24,08,09,7.80
2017,04,24,08,10,7.80
2017,04,24,08,11,7.90
2017,04,24,08,12,7.90
2017,04,24,08,13,7.90
2017,04,24,08,14,8.00
2017,04,24,08,15,8.00
2017,04,24,08,16,8.10
2017,04,24,08,17,8.10
2017,04,24,08,18,8.10
2017,04,24,08,19,8.10
2017,04,24,08,20,8.10
2017,04,24,08,21,8.10
2017,04,24,08,22,8.10
2017,04,24,08,23,8.20
2017,04,24,08,24,8.20
2017,04,24,08,25,8.20
2017,04,24,08,26,8.20
2017,04,24,08,27,8.20
2017,04,24,08,28,8.30
2017,04,24,08,29,8.30
2017,04,24,08,30,8.30
2017,04,24,08,31,8.30
2017,04,24,08,32,8.30
2017,04,24,08,33,8.30
2017,04,24,08,34,8.30
2017,04,24,08,35,8.30
2017,04,24,08,36,8.30
2017,04,24,08,37,8.30
2017,04,24,08,38,8.30
2017,04,24,08,39,8.30
2017,04,24,08,40,8.30
2017,04,24,08,41,8.30
2017,04,24,08,42,8.30
2017,04,24,08,43,8.30
2017,04,24,08,44,8.30
2017,04,24,08,45,8.30
2017,04,24,08,46,8.30
2017,04,24,08,47,8.30
2017,04,24,08,48,8.30
2017,04,24,08,49,8.30
2017,04,24,08,50,8.30
2017,04,24,08,51,8.30
2017,04,24,08,52,8.30
2017,04,24,08,53,8.30
2017,04,24,08,54,8.30
2017,04,24,08,55,8.40
2017,04,24,08,56,8.40
2017,04,24,08,57,8.40
2017,04,24,08,58,8.50
2017,04,24,08,59,8.50
2017,04,24,09,00,8.50
2017,04,24,09,01,8.60
2017,04,24,09,02,8.60
2017,04,24,09,03,8.60
2017,04,24,09,04,8.60
2017,04,24,09,05,8.60
2017,04,24,09,06,8.50
2017,04,24,09,07,8.50
2017,04,24,09,08,8.50
2017,04,24,09,09,8.50
2017,04,24,09,10,8.50
2017,04,24,09,11,8.50
2017,04,24,09,12,8.50
2017,04,24,09,13,8.50
2017,04,24,09,14,8.50
2017,04,24,09,15,8.50
2017,04,24,09,16,8.50
2017,04,24,09,17,8.50
2017,04,24,09,18,8.50
2017,04,24,09,19,8.50
2017,04,24,09,20,8.50
2017,04,24,09,21,8.50
2017,04,24,09,22,8.60
2017,04,24,09,23,8.60
2017,04,24,09,24,8.60
2017,04,24,09,25,8.60
2017,04,24,09,26,8.60
2017,04,24,09,27,8.60
2017,04,24,09,28,8.60
2017,04,24,09,29,8.60
2017,04,24,09,30,8.60
2017,04,24,09,31,8.60
2017,04,24,09,32,8.60
2017,04,24,09,33,8.60
2017,04,24,09,34,8.60
2017,04,24,09,35,8.70
2017,04,24,09,36,8.60
2017,04,24,09,37,8.60
2017,04,24,09,38,8.50
2017,04,24,09,39,8.50
2017,04,24,09,40,8.50
2017,04,24,09,41,8.50
2017,04,24,09,42,8.50
2017,04,24,09,43,8.50
2017,04,24,09,44,8.50
2017,04,24,09,45,8.50
2017,04,24,09,46,8.40
2017,04,24,09,47,8.50
2017,04,24,09,48,8.50
2017,04,24,09,49,8.50
2017,04,24,09,50,8.50
2017,04,24,09,51,8.50
2017,04,24,09,52,8.50
2017,04,24,09,53,8.50
2017,04,24,09,54,8.50
2017,04,24,09,55,8.50
2017,04,24,09,56,8.40
2017,04,24,09,57,8.40
2017,04,24,09,58,8.30
2017,04,24,09,59,8.30
2017,04,24,10,00,8.30
2017,04,24,10,01,8.30
2017,04,24,10,02,8.30
2017,04,24,10,03,8.30
2017,04,24,10,04,8.30
2017,04,24,10,05,8.30
2017,04,24,10,06,8.30
2017,04,24,10,07,8.30
2017,04,24,10,08,8.40
2017,04,24,10,09,8.40
2017,04,24,10,10,8.50
2017,04,24,10,11,8.50
2017,04,24,10,12,8.50
2017,04,24,10,13,8.60
2017,04,24,10,14,8.60
2017,04,24,10,15,8.60
2017,04,24,10,16,8.70
2017,04,24,10,17,8.80
2017,04,24,10,18,8.80
2017,04,24,10,19,8.80
2017,04,24,10,20,8.80
2017,04,24,10,21,8.80
2017,04,24,10,22,8.70
2017,04,24,10,23,8.70
2017,04,24,10,24,8.60
2017,04,24,10,25,8.60
2017,04,24,10,26,8.60
2017,04,24,10,27,8.70
2017,04,24,10,28,8.70
2017,04,24,10,29,8.70
2017,04,24,10,30,8.70
2017,04,24,10,31,8.80
2017,04,24,10,32,8.80
2017,04,24,10,33,8.80
2017,04,24,10,34,8.90
2017,04,24,10,35,8.90
2017,04,24,10,36,9.00
2017,04,24,10,37,9.00
2017,04,24,10,38,9.00
2017,04,24,10,39,9.00
2017,04,24,10,40,9.10
2017,04,24,10,41,9.10
2017,04,24,10,42,9.20
2017,04,24,10,43,9.20
2017,04,24,10,44,9.20
2017,04,24,10,45,9.30
2017,04,24,10,46,9.30
2017,04,24,10,47,9.40
2017,04,24,10,48,9.50
2017,04,24,10,49,9.70
2017,04,24,10,50,9.80
2017,04,24,10,51,9.80
2017,04,24,10,52,9.80
2017,04,24,10,53,9.90
2017,04,24,10,54,9.90
2017,04,24,10,55,9.80
2017,04,24,10,56,9.80
2017,04,24,10,57,9.80
2017,04,24,10,58,9.80
2017,04,24,10,59,9.80
2017,04,24,11,00,9.80
2017,04,24,11,01,9.70
2017,04,24,11,02,9.70
2017,04,24,11,03,9.70
2017,04,24,11,04,9.70
2017,04,24,11,05,9.70
2017,04,24,11,06,9.70
2017,04,24,11,07,9.70
2017,04,24,11,08,9.80
2017,04,24,11,09,9.80
2017,04,24,11,10,9.80
2017,04,24,11,11,9.80
2017,04,24,11,12,9.80
2017,04,24,11,13,9.80
2017,04,24,11,14,9.80
2017,04,24,11,15,9.80
2017,04,24,11,16,9.80
2017,04,24,11,17,9.80
2017,04,24,11,18,9.90
2017,04,24,11,19,9.90
2017,04,24,11,20,9.90
2017,04,24,11,21,10.00
2017,04,24,11,22,10.00
2017,04,24,11,23,10.00
2017,04,24,11,24,10.00
2017,04,24,11,25,10.00
2017,04,24,11,26,10.00
2017,04,24,11,27,10.10
2017,04,24,11,28,10.20
2017,04,24,11,29,10.30
2017,04,24,11,30,10.40
2017,04,24,11,31,10.40
2017,04,24,11,32,10.50
2017,04,24,11,33,10.50
2017,04,24,11,34,10.60
2017,04,24,11,35,10.60
2017,04,24,11,36,10.60
2017,04,24,11,37,10.60
2017,04,24,11,38,10.60
2017,04,24,11,39,10.50
2017,04,24,11,40,10.40
2017,04,24,11,41,10.40
2017,04,24,11,42,10.40
2017,04,24,11,43,10.40
2017,04,24,11,44,10.40
2017,04,24,11,45,10.50
2017,04,24,11,46,10.50
2017,04,24,11,47,10.60
2017,04,24,11,48,10.60
2017,04,24,11,49,10.60
2017,04,24,11,50,10.60
2017,04,24,11,51,10.70
2017,04,24,11,52,10.80
2017,04,24,11,53,11.00
2017,04,24,11,54,11.10
2017,04,24,11,55,11.20
2017,04,24,11,56,11.30
2017,04,24,11,57,11.40
2017,04,24,11,58,11.50
2017,04,24,11,59,11.50
2017,04,24,12,00,11.50
2017,04,24,12,01,11.60
2017,04,24,12,02,11.70
2017,04,24,12,03,11.80
2017,04,24,12,04,11.90
2017,04,24,12,05,11.90
2017,04,24,12,06,12.00
2017,04,24,12,07,12.00
2017,04,24,12,08,12.10
2017,04,24,12,09,12.10
2017,04,24,12,10,12.10
2017,04,24,12,11,12.10
2017,04,24,12,12,12.00
2017,04,24,12,13,11.90
2017,04,24,12,14,11.90
2017,04,24,12,15,11.90
2017,04,24,12,16,11.90
2017,04,24,12,17,11.90
2017,04,24,12,18,11.90
2017,04,24,12,19,12.00
2017,04,24,12,20,11.90
2017,04,24,12,21,11.90
2017,04,24,12,22,11.90
2017,04,24,12,23,11.90
2017,04,24,12,24,11.90
2017,04,24,12,25,11.90
2017,04,24,12,26,11.90
2017,04,24,12,27,11.80
2017,04,24,12,28,11.70
2017,04,24,12,29,11.60
2017,04,24,12,30,11.60
2017,04,24,12,31,11.60
2017,04,24,12,32,11.60
2017,04,24,12,33,11.70
2017,04,24,12,34,11.80
2017,04,24,12,35,11.90
2017,04,24,12,36,12.00
2017,04,24,12,37,12.10
2017,04,24,12,38,12.10
2017,04,24,12,39,12.10
2017,04,24,12,40,12.10
2017,04,24,12,41,12.20
2017,04,24,12,42,12.20
2017,04,24,12,43,12.20
2017,04,24,12,44,12.30
2017,04,24,12,45,12.20
2017,04,24,12,46,12.30
2017,04,24,12,47,12.30
2017,04,24,12,48,12.30
2017,04,24,12,49,12.20
2017,04,24,12,50,12.10
2017,04,24,12,51,12.00
2017,04,24,12,52,12.00
2017,04,24,12,53,12.00
2017,04,24,12,54,12.10
2017,04,24,12,55,12.10
2017,04,24,12,56,12.20
2017,04,24,12,57,12.20
2017,04,24,12,58,12.30
2017,04,24,12,59,12.30
2017,04,24,13,00,12.30
2017,04,24,13,01,12.20
2017,04,24,13,02,12.10
2017,04,24,13,03,12.10
2017,04,24,13,04,11.90
2017,04,24,13,05,11.80
2017,04,24,13,06,11.80
2017,04,24,13,07,11.80
2017,04,24,13,08,11.70
2017,04,24,13,09,11.70
2017,04,24,13,10,11.80
2017,04,24,13,11,11.80
2017,04,24,13,12,11.90
2017,04,24,13,13,12.00
2017,04,24,13,14,12.10
2017,04,24,13,15,12.10
2017,04,24,13,16,12.20
2017,04,24,13,17,12.20
2017,04,24,13,18,12.20
2017,04,24,13,19,12.20
2017,04,24,13,20,12.30
2017,04,24,13,21,12.30
2017,04,24,13,22,12.30
2017,04,24,13,23,12.40
2017,04,24,13,24,12.40
2017,04,24,13,25,12.50
2017,04,24,13,26,12.60
2017,04,24,13,27,12.70
2017,04,24,13,28,12.80
2017,04,24,13,29,12.90
2017,04,24,13,30,13.00
2017,04,24,13,31,13.00
2017,04,24,13,32,13.00
2017,04,24,13,33,12.90
2017,04,24,13,34,12.70
2017,04,24,13,35,12.60
2017,04,24,13,36,12.60
2017,04,24,13,37,12.60
2017,04,24,13,38,12.60
2017,04,24,13,39,12.60
2017,04,24,13,40,12.70
2017,04,24,13,41,12.80
2017,04,24,13,42,12.80
2017,04,24,13,43,12.80
2017,04,24,13,44,12.90
2017,04,24,13,45,13.00
2017,04,24,13,46,13.10
2017,04,24,13,47,13.20
2017,04,24,13,48,13.30
2017,04,24,13,49,13.40
2017,04,24,13,50,13.50
2017,04,24,13,51,13.60
2017,04,24,13,52,13.60
2017,04,24,13,53,13.50
2017,04,24,13,54,13.40
2017,04,24,13,55,13.30
2017,04,24,13,56,13.30
2017,04,24,13,57,13.30
2017,04,24,13,58,13.30
2017,04,24,13,59,13.40
2017,04,24,14,00,13.50
2017,04,24,14,01,13.50
2017,04,24,14,02,13.60
2017,04,24,14,03,13.60
2017,04,24,14,04,13.70
2017,04,24,14,05,13.70
2017,04,24,14,06,13.80
2017,04,24,14,07,13.90
2017,04,24,14,08,13.90
2017,04,24,14,09,13.80
2017,04,24,14,10,13.80
2017,04,24,14,11,13.70
2017,04,24,14,12,13.70
2017,04,24,14,13,13.60
2017,04,24,14,14,13.50
2017,04,24,14,15,13.50
2017,04,24,14,16,13.50
2017,04,24,14,17,13.40
2017,04,24,14,18,13.30
2017,04,24,14,19,13.20
2017,04,24,14,20,13.20
2017,04,24,14,21,13.30
2017,04,24,14,22,13.30
2017,04,24,14,23,13.40
2017,04,24,14,24,13.60
2017,04,24,14,25,13.60
2017,04,24,14,26,13.70
2017,04,24,14,27,13.80
2017,04,24,14,28,13.80
2017,04,24,14,29,13.90
2017,04,24,14,30,13.80
2017,04,24,14,31,13.80
2017,04,24,14,32,13.70
2017,04,24,14,33,13.70
2017,04,24,14,34,13.60
2017,04,24,14,35,13.40
2017,04,24,14,36,13.30
2017,04,24,14,37,13.20
2017,04,24,14,38,13.20
2017,04,24,14,39,13.10
2017,04,24,14,40,13.10
2017,04,24,14,41,13.10
2017,04,24,14,42,13.20
2017,04,24,14,43,13.40
2017,04,24,14,44,13.50
2017,04,24,14,45,13.60
2017,04,24,14,46,13.70
2017,04,24,14,47,13.80
2017,04,24,14,48,14.00
2017,04,24,14,49,14.20
2017,04,24,14,50,14.30
2017,04,24,14,51,14.40
2017,04,24,14,52,14.40
2017,04,24,14,53,14.50
2017,04,24,14,54,14.50
2017,04,24,14,55,14.40
2017,04,24,14,56,14.20
2017,04,24,14,57,14.00
2017,04,24,14,58,13.80
2017,04,24,14,59,13.80
2017,04,24,15,00,13.80
2017,04,24,15,01,13.80
2017,04,24,15,02,13.80
2017,04,24,15,03,13.80
2017,04,24,15,04,13.80
2017,04,24,15,05,13.90
2017,04,24,15,06,14.00
2017,04,24,15,07,14.00
2017,04,24,15,08,14.20
2017,04,24,15,09,14.30
2017,04,24,15,10,14.30
2017,04,24,15,11,14.30
2017,04,24,15,12,14.40
2017,04,24,15,13,14.40
2017,04,24,15,14,14.50
2017,04,24,15,15,14.60
2017,04,24,15,16,14.60
2017,04,24,15,17,14.60
2017,04,24,15,18,14.70
2017,04,24,15,19,14.70
2017,04,24,15,20,14.60
2017,04,24,15,21,14.60
2017,04,24,15,22,14.60
2017,04,24,15,23,14.60
2017,04,24,15,24,14.70
2017,04,24,15,25,14.80
2017,04,24,15,26,14.90
2017,04,24,15,27,15.00
2017,04,24,15,28,15.10
2017,04,24,15,29,15.30
2017,04,24,15,30,15.40
2017,04,24,15,31,15.40
2017,04,24,15,32,15.40
2017,04,24,15,33,15.40
2017,04,24,15,34,15.40
2017,04,24,15,35,15.30
2017,04,24,15,36,15.30
2017,04,24,15,37,15.30
2017,04,24,15,38,15.40
2017,04,24,15,39,15.40
2017,04,24,15,40,15.40
2017,04,24,15,41,15.40
2017,04,24,15,42,15.30
2017,04,24,15,43,15.30
2017,04,24,15,44,15.30
2017,04,24,15,45,15.20
2017,04,24,15,46,15.00
2017,04,24,15,47,14.90
2017,04,24,15,48,14.90
2017,04,24,15,49,14.80
2017,04,24,15,50,14.80
2017,04,24,15,51,14.70
2017,04,24,15,52,14.70
2017,04,24,15,53,14.70
2017,04,24,15,54,14.70
2017,04,24,15,55,14.70
2017,04,24,15,56,14.80
2017,04,24,15,57,14.90
2017,04,24,15,58,15.00
2017,04,24,15,59,15.10
2017,04,24,16,00,15.10
2017,04,24,16,01,15.00
2017,04,24,16,02,15.00
2017,04,24,16,03,15.10
2017,04,24,16,04,15.10
2017,04,24,16,05,15.10
2017,04,24,16,06,15.20
2017,04,24,16,07,15.20
2017,04,24,16,08,15.10
2017,04,24,16,09,15.10
2017,04,24,16,10,15.00
2017,04,24,16,11,15.00
2017,04,24,16,12,14.90
2017,04,24,16,13,14.90
2017,04,24,16,14,15.00
2017,04,24,16,15,15.00
2017,04,24,16,16,15.10
2017,04,24,16,17,15.10
2017,04,24,16,18,15.10
2017,04,24,16,19,15.20
2017,04,24,16,20,15.20
2017,04,24,16,21,15.20
2017,04,24,16,22,15.10
2017,04,24,16,23,15.00
2017,04,24,16,24,14.90
2017,04,24,16,25,14.90
2017,04,24,16,26,14.80
2017,04,24,16,27,14.80
2017,04,24,16,28,14.80
2017,04,24,16,29,14.70
2017,04,24,16,30,14.70
2017,04,24,16,31,14.70
2017,04,24,16,32,14.70
2017,04,24,16,33,14.70
2017,04,24,16,34,14.70
2017,04,24,16,35,14.70
2017,04,24,16,36,14.80
2017,04,24,16,37,14.90
2017,04,24,16,38,15.00
2017,04,24,16,39,15.10
2017,04,24,16,40,15.20
2017,04,24,16,41,15.20
2017,04,24,16,42,15.30
2017,04,24,16,43,15.30
2017,04,24,16,44,15.40
2017,04,24,16,45,15.50
2017,04,24,16,46,15.60
2017,04,24,16,47,15.60
2017,04,24,16,48,15.60
2017,04,24,16,49,15.60
2017,04,24,16,50,15.50
2017,04,24,16,51,15.40
2017,04,24,16,52,15.30
2017,04,24,16,53,15.30
2017,04,24,16,54,15.20
2017,04,24,16,55,15.20
2017,04,24,16,56,15.20
2017,04,24,16,57,15.20
2017,04,24,16,58,15.20
2017,04,24,16,59,15.10
2017,04,24,17,00,15.10
2017,04,24,17,01,15.10
2017,04,24,17,02,15.00
2017,04,24,17,03,15.10
2017,04,24,17,04,15.10
2017,04,24,17,05,15.10
2017,04,24,17,06,15.20
2017,04,24,17,07,15.30
2017,04,24,17,08,15.20
2017,04,24,17,09,15.20
2017,04,24,17,10,15.20
2017,04,24,17,11,15.30
2017,04,24,17,12,15.30
2017,04,24,17,13,15.30
2017,04,24,17,14,15.40
2017,04,24,17,15,15.40
2017,04,24,17,16,15.50
2017,04,24,17,17,15.50
2017,04,24,17,18,15.50
2017,04,24,17,19,15.50
2017,04,24,17,20,15.50
2017,04,24,17,21,15.50
2017,04,24,17,22,15.50
2017,04,24,17,23,15.50
2017,04,24,17,24,15.40
2017,04,24,17,25,15.40
2017,04,24,17,26,15.30
2017,04,24,17,27,15.30
2017,04,24,17,28,15.20
2017,04,24,17,29,15.20
2017,04,24,17,30,15.20
2017,04,24,17,31,15.10
2017,04,24,17,32,15.10
2017,04,24,17,33,15.00
2017,04,24,17,34,15.00
2017,04,24,17,35,14.90
2017,04,24,17,36,14.90
2017,04,24,17,37,14.80
2017,04,24,17,38,14.80
2017,04,24,17,39,14.70
2017,04,24,17,40,14.70
2017,04,24,17,41,14.70
2017,04,24,17,42,14.70
2017,04,24,17,43,14.70
2017,04,24,17,44,14.60
2017,04,24,17,45,14.60
2017,04,24,17,46,14.60
2017,04,24,17,47,14.60
2017,04,24,17,48,14.60
2017,04,24,17,49,14.60
2017,04,24,17,50,14.60
2017,04,24,17,51,14.60